This is the latest recevied weather packets stored in our database for station/object K4CRS-13. If no packets are shown the sender has not sent any weather packets the latest 10 day(s).
| Time | Temp. | Humidity | Pressure | Rain* | Wind** | Luminosity | Snow |
|---|---|---|---|---|---|---|---|
| 1777464331 | 18.33° C | 99% | 1048.4 hPa | 0 mm | - | 8 W/m² | - |
| 1777464027 | 17.78° C | 99% | 1048.3 hPa | 0 mm | - | 9 W/m² | - |
| 1777463722 | 17.78° C | 99% | 1048.2 hPa | 0 mm | - | 6 W/m² | - |
| 1777463416 | 17.78° C | 99% | 1048.1 hPa | 0 mm | - | 5 W/m² | - |
| 1777463113 | 17.78° C | 99% | 1048 hPa | 0 mm | - | 5 W/m² | - |
| 1777462809 | 17.78° C | 99% | 1048.3 hPa | 0 mm | - | 2 W/m² | - |
| 1777462503 | 17.78° C | 99% | 1048 hPa | 0 mm | - | 2 W/m² | - |
| 1777462200 | 17.78° C | 99% | 1047.8 hPa | 0 mm | - | 4 W/m² | - |
| 1777461897 | 17.78° C | 99% | 1048.2 hPa | 0 mm | - | 1 W/m² | - |
| 1777461594 | 17.78° C | 99% | 1048.4 hPa | 0 mm | - | 1 W/m² | - |
| 1777461289 | 17.78° C | 99% | 1048.4 hPa | 0 mm | - | 1 W/m² | - |
| 1777460985 | 17.78° C | 99% | 1048.3 hPa | 0 mm | - | 0 W/m² | - |
| 1777460681 | 17.78° C | 99% | 1048.2 hPa | 0 mm | - | 0 W/m² | - |
| 1777460377 | 17.22° C | 99% | 1047.9 hPa | 1.27 mm | - | 0 W/m² | - |
| 1777460073 | 17.22° C | 99% | 1047.3 hPa | 1.27 mm | - | 0 W/m² | - |
| 1777459770 | 17.22° C | 99% | 1047.6 hPa | 0 mm | - | 0 W/m² | - |
| 1777459467 | 17.22° C | 99% | 1048.3 hPa | 0 mm | - | 0 W/m² | - |
| 1777459164 | 17.22° C | 99% | 1048.6 hPa | 0 mm | - | 0 W/m² | - |
| 1777458856 | 17.22° C | 99% | 1048.3 hPa | 0 mm | - | 0 W/m² | - |
| 1777458553 | 17.22° C | 99% | 1048.3 hPa | 0 mm | - | 0 W/m² | - |
| 1777458249 | 17.22° C | 99% | 1048.2 hPa | 1.78 mm | - | 0 W/m² | - |
| 1777457944 | 17.22° C | 99% | 1048.4 hPa | 0 mm | - | 0 W/m² | - |
| 1777457641 | 17.22° C | 99% | 1048.3 hPa | 1.27 mm | - | 0 W/m² | - |
| 1777457340 | 17.22° C | 99% | 1048.6 hPa | 1.27 mm | - | 0 W/m² | - |
| 1777457036 | 17.22° C | 99% | 1048.6 hPa | 35.31 mm | - | 0 W/m² | - |
* Rain latest hour (hover to see other rain measurements)
** Current wind speed in m/s (hover to see current wind gust speed)